This demonstration page uses our WeatherBlox Daily Observations layout. Learn more.

Left ArrowRight Arrow

Hourly Observations for December 11, 2020

Temp ( °F °C ) Dew Point ( °F °C ) Humidity (%) Winds ( mph kmh ) Pressure ( in mb ) Visibility ( mi km ) Precip ( " mm )
12:54 am 00:54 Cloudy 38 3.3 30 -1.1 73 73 NNE 16 26 29.93 1014 10 16.0934 0 0
1:54 am 01:54 Cloudy 37 2.8 30 -1.1 76 76 NNE 14 22 29.93 1014 10 16.0934 0 0
2:54 am 02:54 Cloudy 36 2.2 30 -1.1 79 79 NNE 14 22 29.94 1014 10 16.0934 0 0
3:20 am 03:20 Cloudy 36 2.2 30 -1.1 79 79 NNE 16 26 29.96 1015 10 16.0934 0 0
3:44 am 03:44 Cloudy 36 2.2 30 -1.1 79 79 NNE 15 24 29.97 1015 10 16.0934 0 0
3:54 am 03:54 Cloudy 36 2.2 30 -1.1 79 79 NNE 17 28 29.93 1013 10 16.0934 0 0
4:54 am 04:54 Cloudy 36 2.2 30 -1.1 79 79 N 16 26 29.95 1014 10 16.0934 0 0
5:54 am 05:54 Cloudy 36 2.2 29 -1.7 76 76 N 21 33 29.93 1014 10 16.0934 0 0
6:54 am 06:54 Cloudy 36 2.2 29 -1.7 76 76 NNE 20 31 29.93 1014 10 16.0934 0 0
7:04 am 07:04 Cloudy 36 2.2 29 -1.7 76 76 NNE 16 26 29.95 1014 10 16.0934 0 0
7:43 am 07:43 Cloudy 36 2.2 29 -1.7 76 76 NNE 17 28 29.97 1015 10 16.0934 0 0
7:54 am 07:54 Cloudy 36 2.2 29 -1.7 76 76 NNE 20 31 29.92 1013 10 16.0934 0 0
8:54 am 08:54 Cloudy 36 2.2 30 -1.1 79 79 N 16 26 29.94 1014 10 16.0934 0 0
9:54 am 09:54 Cloudy 36 2.2 30 -1.1 79 79 N 17 28 29.95 1014 10 16.0934 0 0
10:54 am 10:54 Cloudy 36 2.2 30 -1.1 79 79 NNE 20 31 29.93 1013 10 16.0934 0 0
11:54 am 11:54 Cloudy 37 2.8 30 -1.1 76 76 NNE 20 31 29.89 1012 10 16.0934 0 0
12:54 pm 12:54 Cloudy 36 2.2 30 -1.1 79 79 NNE 16 26 29.88 1012 10 16.0934 0 0
1:20 pm 13:20 Cloudy 36 2.2 30 -1.1 79 79 NNE 17 28 29.9 1012 10 16.0934 0 0
1:54 pm 13:54 Cloudy 36 2.2 31 -0.6 82 82 NNE 16 26 29.87 1011 10 16.0934 0 0
2:54 pm 14:54 Cloudy with Light Rain 35 1.7 31 -0.6 85 85 NNE 16 26 29.86 1011 8 12.87472 0.001 0.001
3:54 pm 15:54 Cloudy with Light Snow 34 1.1 31 -0.6 89 89 N 15 24 29.87 1011 5 8.0467 0.02 0.508
4:54 pm 16:54 Cloudy with Light Snow 34 1.1 31 -0.6 89 89 N 14 22 29.87 1012 4 6.43736 0.03 0.762
5:54 pm 17:54 Cloudy with Light Snow 34 1.1 31 -0.6 89 89 N 17 28 29.88 1012 6 9.65604 0.06 1.524
6:54 pm 18:54 Windy with Snow Likely 34 1.1 31 -0.6 89 89 NNE 21 33 29.88 1012 4 6.43736 0.03 0.762
7:52 pm 19:52 Cloudy with Light Snow 34 1 30 -1 87 87 N 15 24 29.91 1013 2.5 4.02335 0.04 1.016
7:54 pm 19:54 Cloudy with Light Snow 33 0.6 31 -0.6 92 92 NNE 16 26 29.89 1012 2.5 4.02335 0.04 1.016
8:08 pm 20:08 Cloudy with Light Snow 33 0.6 31 -0.6 92 92 NNE 14 22 29.92 1013 1.5 2.41401 0.02 0.508
8:54 pm 20:54 Windy with Snow Likely 33 0.6 31 -0.6 92 92 NNE 21 33 29.9 1013 1.25 2.011675 0.07 1.778
9:54 pm 21:54 Windy with Snow Likely 33 0.6 31 -0.6 92 92 NNE 21 33 29.91 1013 1 1.60934 0.05 1.27
10:54 pm 22:54 Windy with Snow Likely 33 0.6 30 -1.1 89 89 NNE 20 31 29.91 1013 1.25 2.011675 0.03 0.762
11:40 pm 23:40 Windy with Snow Likely 33 0.6 30 -1.1 89 89 NNE 21 33 29.95 1014 0.75 1.207005 0.02 0.508
11:54 pm 23:54 Windy with Snow Likely 33 0.6 30 -1.1 89 89 NNE 21 33 29.92 1013 1 1.60934 0.02 0.508

Powered by AerisWeather